Tracking 26321 objects as of 27-Nov-2022
HD Live streaming from Space Station
objects crossing your sky now

STARLINK 1024

Track STARLINK 1024 now!
10-day predictions
STARLINK 1024 is classified as:


NORAD ID: 44729
Int'l Code: 2019-074S
Perigee: 508.9 km
Apogee: 514.2 km
Inclination: 53.0 °
Period: 94.7 minutes
Semi major axis: 6882 km
RCS: Unknown
Launch date: November 11, 2019
Source: United States (US)
Launch site: AIR FORCE EASTERN TEST RANGE (AFETR)
aabbcc
Your satellite tracking list
Your tracking list is empty




NASA's NSSDC Master Catalog

Two Line Element Set (TLE):
1 44729U 19074S   22330.80530672  .00007409  00000-0  34918-3 0  9996
2 44729  52.9976 165.8413 0003848 158.5625 201.5531 15.20489021168047
Source of the keplerian elements: AFSPC